| time (UTC) | temp F | wind direction | speed MPH | gust MPH | rain 1hr in | rain 24hr in | rain mn in | humidity % | barometer mb |
| 20260510191628 | 68 | 219 | 2.0 | 5.0 | 0.00 | 0.23 | 0.00 | 55 | 1014.1 |
| 20260510190615 | 67 | 222 | 4.0 | 7.0 | 0.00 | 0.24 | 0.00 | 56 | 1014.1 |
| 20260510190513 | 67 | 248 | 5.0 | 7.0 | 0.00 | 0.24 | 0.00 | 56 | 1014.1 |
| 20260510185514 | 67 | 242 | 4.0 | 11.0 | 0.00 | 0.25 | 0.00 | 57 | 1014.1 |
| 20260510184514 | 67 | 268 | 4.0 | 14.0 | 0.00 | 0.27 | 0.00 | 57 | 1014.1 |
| 20260510181514 | 65 | 231 | 2.0 | 4.0 | 0.00 | 0.31 | 0.00 | 65 | 1014.4 |
| 20260510174614 | 63 | 247 | 5.0 | 10.0 | 0.00 | 0.35 | 0.00 | 64 | 1014.6 |
| 20260510173628 | 65 | 214 | 1.0 | 3.0 | 0.00 | 0.37 | 0.00 | 62 | 1014.5 |
| 20260510171728 | 64 | 215 | 0.0 | 2.0 | 0.00 | 0.39 | 0.00 | 64 | 1014.4 |
| 20260510170714 | 65 | 208 | 2.0 | 5.0 | 0.00 | 0.41 | 0.00 | 61 | 1014.4 |
| 20260510164714 | 65 | 191 | 2.0 | 7.0 | 0.00 | 0.45 | 0.00 | 61 | 1014.5 |
| 20260510163715 | 65 | 269 | 3.0 | 7.0 | 0.00 | 0.47 | 0.00 | 65 | 1014.7 |
| 20260510162813 | 64 | 292 | 3.0 | 6.0 | 0.00 | 0.48 | 0.00 | 66 | 1014.7 |
| 20260510161912 | 64 | 233 | 4.0 | 9.0 | 0.00 | 0.49 | 0.00 | 67 | 1014.7 |
| 20260510161011 | 63 | 245 | 3.0 | 7.0 | 0.00 | 0.51 | 0.00 | 68 | 1014.7 |
| 20260510160915 | 63 | 245 | 5.0 | 8.0 | 0.00 | 0.51 | 0.00 | 68 | 1014.7 |
| 20260510153914 | 62 | 208 | 3.0 | 5.0 | 0.00 | 0.55 | 0.00 | 74 | 1014.8 |
| 20260510152913 | 62 | 140 | 5.0 | 8.0 | 0.00 | 0.56 | 0.00 | 76 | 1014.8 |
| 20260510152830 | 62 | 183 | 4.0 | 7.0 | 0.00 | 0.56 | 0.00 | 76 | 1014.9 |
| 20260510151728 | 62 | 160 | 2.0 | 4.0 | 0.00 | 0.57 | 0.00 | 79 | 1014.8 |
| 20260510150715 | 60 | 217 | 0.0 | 4.0 | 0.00 | 0.57 | 0.00 | 81 | 1014.9 |
| 20260510145811 | 60 | 126 | 2.0 | 6.0 | 0.00 | 0.57 | 0.00 | 84 | 1015.0 |
| 20260510144813 | 59 | 182 | 4.0 | 6.0 | 0.00 | 0.59 | 0.00 | 87 | 1015.1 |
| 20260510143815 | 58 | 202 | 0.0 | 0.0 | 0.00 | 0.60 | 0.00 | 90 | 1015.1 |
| 20260510141712 | 56 | 154 | 2.0 | 4.0 | 0.00 | 0.62 | 0.00 | 90 | 1015.4 |
| 20260510140714 | 55 | 288 | 2.0 | 4.0 | 0.00 | 0.63 | 0.00 | 90 | 1015.5 |
| 20260510140613 | 55 | 245 | 2.0 | 4.0 | 0.00 | 0.63 | 0.00 | 89 | 1015.5 |
| 20260510135629 | 54 | 250 | 1.0 | 2.0 | 0.00 | 0.63 | 0.00 | 89 | 1015.5 |
| 20260510134713 | 53 | 275 | 2.0 | 3.0 | 0.00 | 0.64 | 0.00 | 89 | 1015.6 |
| 20260510133714 | 53 | 157 | 0.0 | 1.0 | 0.00 | 0.65 | 0.00 | 89 | 1015.5 |
| 20260510132728 | 53 | 291 | 0.0 | 1.0 | 0.00 | 0.65 | 0.00 | 87 | 1015.5 |
| 20260510125713 | 51 | 225 | 0.0 | 0.0 | 0.00 | 0.66 | 0.00 | 88 | 1015.4 |
| 20260510125612 | 51 | 225 | 0.0 | 0.0 | 0.00 | 0.66 | 0.00 | 89 | 1015.5 |
| 20260510123612 | 51 | 247 | 0.0 | 0.0 | 0.00 | 0.67 | 0.00 | 89 | 1015.4 |
| 20260510122711 | 50 | 149 | 0.0 | 3.0 | 0.00 | 0.68 | 0.00 | 89 | 1015.5 |
| 20260510121714 | 50 | 176 | 2.0 | 4.0 | 0.00 | 0.68 | 0.00 | 89 | 1015.5 |
| 20260510115812 | 50 | 247 | 0.0 | 0.0 | 0.00 | 0.68 | 0.00 | 88 | 1015.7 |
| 20260510113914 | 49 | 202 | 1.0 | 2.0 | 0.00 | 0.68 | 0.00 | 88 | 1015.6 |
| 20260510112013 | 49 | 247 | 1.0 | 2.0 | 0.00 | 0.68 | 0.00 | 89 | 1015.5 |
| 20260510111914 | 49 | 256 | 1.0 | 2.0 | 0.00 | 0.68 | 0.00 | 88 | 1015.5 |
| 20260510110915 | 48 | 202 | 1.0 | 2.0 | 0.00 | 0.68 | 0.00 | 89 | 1015.1 |
| 20260510110829 | 48 | 243 | 0.0 | 0.0 | 0.00 | 0.68 | 0.00 | 89 | 1015.1 |
| 20260510110711 | 48 | 247 | 0.0 | 1.0 | 0.00 | 0.68 | 0.00 | 89 | 1015.1 |
| 20260510105712 | 48 | 157 | 0.0 | 0.0 | 0.00 | 0.68 | 0.00 | 89 | 1014.8 |
| 20260510103714 | 46 | 22 | 0.0 | 0.0 | 0.00 | 0.68 | 0.00 | 89 | 1014.7 |
| 20260510100827 | 46 | 270 | 0.0 | 0.0 | 0.00 | 0.68 | 0.00 | 88 | 1014.4 |
| 20260510095815 | 46 | 180 | 0.0 | 0.0 | 0.00 | 0.68 | 0.00 | 89 | 1013.9 |
| 20260510095714 | 46 | 180 | 0.0 | 0.0 | 0.00 | 0.68 | 0.00 | 89 | 1013.9 |
| 20260510094812 | 46 | 270 | 0.0 | 0.0 | 0.00 | 0.68 | 0.00 | 88 | 1013.9 |
| 20260510094729 | 46 | 270 | 0.0 | 0.0 | 0.00 | 0.68 | 0.00 | 88 | 1013.9 |
| 20260510093715 | 46 | 157 | 0.0 | 0.0 | 0.00 | 0.68 | 0.00 | 89 | 1013.9 |
| 20260510092715 | 46 | 247 | 1.0 | 1.0 | 0.00 | 0.68 | 0.00 | 89 | 1014.2 |
| 20260510085714 | 46 | 337 | 0.0 | 0.0 | 0.00 | 0.68 | 0.00 | 88 | 1014.2 |
| 20260510083714 | 46 | 337 | 0.0 | 0.0 | 0.00 | 0.68 | 0.00 | 89 | 1014.4 |
| 20260510082713 | 46 | 337 | 0.0 | 0.0 | 0.00 | 0.68 | 0.00 | 88 | 1014.3 |
| 20260510081614 | 46 | 337 | 0.0 | 0.0 | 0.00 | 0.68 | 0.00 | 88 | 1014.1 |
| 20260510075716 | 46 | 337 | 0.0 | 0.0 | 0.00 | 0.68 | 0.00 | 89 | 1014.4 |
| 20260510074712 | 46 | 337 | 0.0 | 0.0 | 0.00 | 0.68 | 0.00 | 89 | 1014.2 |
| 20260510073713 | 46 | 337 | 0.0 | 0.0 | 0.00 | 0.68 | 0.00 | 89 | 1014.1 |
| 20260510072713 | 46 | 337 | 0.0 | 0.0 | 0.00 | 0.68 | 0.00 | 89 | 1014.2 |
| 20260510071812 | 46 | 337 | 0.0 | 0.0 | 0.00 | 0.68 | 0.00 | 89 | 1014.1 |
| 20260510070814 | 46 | 337 | 0.0 | 0.0 | 0.00 | 0.68 | 0.00 | 89 | 1014.0 |
| 20260510070715 | 46 | 337 | 0.0 | 0.0 | 0.00 | 0.68 | 0.00 | 88 | 1014.1 |
| 20260510065714 | 46 | 337 | 0.0 | 0.0 | 0.00 | 0.68 | 0.00 | 88 | 1014.1 |
| 20260510064731 | 46 | 337 | 0.0 | 0.0 | 0.00 | 0.68 | 0.00 | 89 | 1014.1 |
| 20260510063714 | 45 | 337 | 0.0 | 0.0 | 0.00 | 0.68 | 0.00 | 88 | 1014.4 |
| 20260510062713 | 45 | 337 | 0.0 | 0.0 | 0.00 | 0.68 | 0.00 | 88 | 1014.3 |
| 20260510061713 | 45 | 337 | 0.0 | 0.0 | 0.00 | 0.68 | 0.00 | 88 | 1014.3 |
| 20260510060713 | 46 | 337 | 0.0 | 0.0 | 0.00 | 0.68 | 0.00 | 88 | 1014.2 |
| 20260510055712 | 45 | 337 | 0.0 | 0.0 | 0.00 | 0.68 | 0.00 | 89 | 1014.4 |
| 20260510054712 | 45 | 337 | 0.0 | 0.0 | 0.00 | 0.68 | 0.00 | 88 | 1014.3 |
| 20260510051713 | 45 | 311 | 0.0 | 3.0 | 0.00 | 0.68 | 0.00 | 89 | 1014.4 |
| 20260510051612 | 45 | 337 | 0.0 | 0.0 | 0.00 | 0.68 | 0.00 | 89 | 1014.4 |
| 20260510050613 | 45 | 337 | 0.0 | 1.0 | 0.00 | 0.68 | 0.00 | 89 | 1014.4 |
| 20260510045611 | 45 | 180 | 1.0 | 1.0 | 0.00 | 0.68 | 0.00 | 89 | 1014.5 |
| 20260510044613 | 45 | 315 | 1.0 | 2.0 | 0.00 | 0.68 | 0.00 | 89 | 1014.6 |
| 20260510042711 | 45 | 254 | 0.0 | 1.0 | 0.00 | 0.68 | 0.00 | 90 | 1014.9 |
| 20260510042612 | 45 | 282 | 0.0 | 1.0 | 0.00 | 0.68 | 0.00 | 90 | 1014.8 |
| 20260510041613 | 45 | 337 | 0.0 | 0.0 | 0.00 | 0.68 | 0.00 | 90 | 1014.7 |
| 20260510040712 | 45 | 337 | 0.0 | 0.0 | 0.00 | 0.68 | 0.00 | 90 | 1014.7 |
| 20260510040614 | 45 | 337 | 0.0 | 0.0 | 0.00 | 0.68 | 0.00 | 89 | 1014.7 |
| 20260510035616 | 45 | 337 | 0.0 | 0.0 | 0.00 | 0.68 | 0.68 | 90 | 1014.8 |
| 20260510033620 | 45 | 337 | 0.0 | 0.0 | 0.00 | 0.68 | 0.68 | 89 | 1014.6 |
| 20260510032716 | 45 | 337 | 0.0 | 0.0 | 0.00 | 0.68 | 0.68 | 90 | 1014.8 |
| 20260510031718 | 45 | 337 | 0.0 | 0.0 | 0.00 | 0.68 | 0.68 | 90 | 1015.0 |
| 20260510030816 | 45 | 337 | 0.0 | 0.0 | 0.00 | 0.68 | 0.68 | 90 | 1015.0 |
| 20260510025817 | 45 | 337 | 0.0 | 0.0 | 0.00 | 0.68 | 0.68 | 90 | 1015.2 |
| 20260510024818 | 45 | 337 | 2.0 | 3.0 | 0.00 | 0.68 | 0.68 | 90 | 1015.3 |
| 20260510023833 | 45 | 337 | 0.0 | 0.0 | 0.00 | 0.68 | 0.68 | 90 | 1015.3 |
| 20260510022819 | 45 | 337 | 0.0 | 0.0 | 0.00 | 0.68 | 0.68 | 89 | 1015.3 |
| 20260510022734 | 45 | 337 | 0.0 | 0.0 | 0.00 | 0.68 | 0.68 | 90 | 1015.3 |
| 20260510021717 | 45 | 337 | 0.0 | 0.0 | 0.00 | 0.68 | 0.68 | 89 | 1015.4 |
| 20260510021618 | 45 | 337 | 0.0 | 0.0 | 0.00 | 0.68 | 0.68 | 90 | 1015.5 |
| 20260510015617 | 45 | 180 | 0.0 | 0.0 | 0.00 | 0.68 | 0.68 | 90 | 1015.4 |
| 20260510014619 | 45 | 180 | 0.0 | 0.0 | 0.00 | 0.68 | 0.68 | 90 | 1015.5 |
| 20260510013632 | 45 | 180 | 1.0 | 1.0 | 0.00 | 0.68 | 0.68 | 90 | 1015.5 |
| 20260510012619 | 45 | 315 | 0.0 | 0.0 | 0.00 | 0.68 | 0.68 | 90 | 1015.7 |
| 20260510010720 | 45 | 315 | 0.0 | 0.0 | 0.00 | 0.68 | 0.68 | 90 | 1015.4 |
| 20260510005717 | 45 | 157 | 0.0 | 0.0 | 0.00 | 0.68 | 0.68 | 89 | 1015.1 |
| 20260510004718 | 45 | 157 | 0.0 | 0.0 | 0.00 | 0.68 | 0.68 | 90 | 1015.0 |
| 20260510004618 | 45 | 157 | 0.0 | 0.0 | 0.00 | 0.68 | 0.68 | 89 | 1015.1 |
| 20260510003619 | 45 | 157 | 0.0 | 0.0 | 0.00 | 0.68 | 0.68 | 90 | 1015.1 |
| 20260510002619 | 45 | 157 | 0.0 | 0.0 | 0.00 | 0.68 | 0.68 | 90 | 1015.0 |
| 20260510000536 | 45 | 157 | 0.0 | 1.0 | 0.00 | 0.68 | 0.68 | 90 | 1015.0 |
| 20260509235416 | 45 | 180 | 0.0 | 0.0 | 0.00 | 0.68 | 0.68 | 90 | 1014.9 |
| 20260509234516 | 45 | 180 | 0.0 | 0.0 | 0.01 | 0.68 | 0.68 | 89 | 1014.9 |
| 20260509233518 | 45 | 225 | 0.0 | 0.0 | 0.01 | 0.68 | 0.68 | 90 | 1014.8 |
| 20260509232617 | 45 | 225 | 0.0 | 0.0 | 0.01 | 0.68 | 0.68 | 89 | 1014.8 |
| 20260509232518 | 45 | 225 | 0.0 | 0.0 | 0.01 | 0.68 | 0.68 | 90 | 1014.8 |
| 20260509231518 | 45 | 286 | 0.0 | 1.0 | 0.01 | 0.68 | 0.68 | 89 | 1014.8 |
| 20260509230616 | 45 | 292 | 0.0 | 0.0 | 0.01 | 0.68 | 0.68 | 89 | 1014.6 |
| 20260509225633 | 45 | 292 | 0.0 | 0.0 | 0.01 | 0.68 | 0.68 | 89 | 1014.7 |
| 20260509223817 | 44 | 180 | 0.0 | 0.0 | 0.00 | 0.67 | 0.67 | 89 | 1014.8 |
| 20260509223719 | 44 | 180 | 0.0 | 0.0 | 0.00 | 0.67 | 0.67 | 90 | 1014.8 |
| 20260509222718 | 44 | 180 | 0.0 | 1.0 | 0.01 | 0.67 | 0.67 | 90 | 1014.7 |
| 20260509220716 | 44 | 315 | 0.0 | 1.0 | 0.04 | 0.67 | 0.67 | 90 | 1014.8 |
| 20260509215718 | 44 | 315 | 0.0 | 0.0 | 0.06 | 0.67 | 0.67 | 89 | 1015.0 |
| 20260509215619 | 44 | 315 | 0.0 | 0.0 | 0.06 | 0.67 | 0.67 | 90 | 1015.0 |
| 20260509214519 | 44 | 315 | 0.0 | 0.0 | 0.08 | 0.67 | 0.67 | 89 | 1015.0 |
| 20260509213518 | 44 | 270 | 0.0 | 0.0 | 0.10 | 0.67 | 0.67 | 90 | 1015.4 |
| 20260509212518 | 44 | 270 | 1.0 | 2.0 | 0.11 | 0.66 | 0.65 | 90 | 1015.5 |
| 20260509211517 | 44 | 270 | 1.0 | 1.0 | 0.12 | 0.65 | 0.64 | 89 | 1015.5 |
| 20260509211418 | 44 | 270 | 2.0 | 2.0 | 0.11 | 0.64 | 0.64 | 89 | 1015.5 |
| 20260509205417 | 44 | 126 | 0.0 | 0.0 | 0.10 | 0.60 | 0.60 | 90 | 1015.6 |
| 20260509205318 | 44 | 112 | 0.0 | 0.0 | 0.10 | 0.60 | 0.60 | 89 | 1015.6 |
| 20260509204318 | 44 | 112 | 0.0 | 0.0 | 0.09 | 0.57 | 0.57 | 89 | 1015.6 |
| 20260509203317 | 44 | 180 | 0.0 | 0.0 | 0.09 | 0.56 | 0.56 | 91 | 1015.7 |
| 20260509202416 | 44 | 180 | 0.0 | 0.0 | 0.09 | 0.55 | 0.54 | 91 | 1015.7 |
| 20260509202317 | 44 | 180 | 0.0 | 0.0 | 0.08 | 0.54 | 0.54 | 91 | 1015.6 |
| 20260509201318 | 44 | 337 | 0.0 | 0.0 | 0.08 | 0.53 | 0.53 | 91 | 1015.9 |
| 20260509201216 | 44 | 337 | 0.0 | 0.0 | 0.08 | 0.53 | 0.53 | 90 | 1015.8 |
| 20260509193218 | 43 | 157 | 0.0 | 0.0 | 0.07 | 0.47 | 0.47 | 91 | 1015.6 |
| 20260509192317 | 43 | 157 | 0.0 | 0.0 | 0.07 | 0.46 | 0.46 | 90 | 1015.8 |